Weather History for KCWA - July, 2013

Change the Weather History Date:

Monday, July 8, 2013

  Actual Average Record
Temperature  
Mean Temperature 74 °F -  
Max Temperature 82 °F 75 °F 91 °F (2007)
Min Temperature 66 °F 54 °F 46 °F (2015)
Cooling Degree Days 9    
Growing Degree Days 24 (Base 50)    
Moisture  
Dew Point 70 °F    
Average Humidity 92    
Maximum Humidity 100    
Minimum Humidity 66    
Precipitation  
Precipitation 1.63 in - - ()
Sea Level Pressure  
Sea Level Pressure 29.96 in    
Wind  
Wind Speed 6 mph (ENE)    
Max Wind Speed 17 mph    
Max Gust Speed 25 mph    
Visibility 7 miles    
Events Rain , Thunderstorm    
Averages and records for this station are not official NWS values.
T = Trace of Precipitation, MM = Missing Value Source: NWS Daily Summary

Daily Weather History Graph

Daily Weather History Graph

Search for Another Location

Airport or City:

Trip Planner

Search our weather history database for the weather conditions in past years. The results will help you decide how hot, cold, wet, or windy it might be!

Date:

Astronomy

Jul. 08, 2013 Rise Set
Actual Time 5:21 AM CDT 8:45 PM CDT
Civil Twilight 4:45 AM CDT 9:22 PM CDT
Nautical Twilight 3:57 AM CDT 10:09 PM CDT
Astronomical Twilight 2:56 AM CDT 11:09 PM CDT
Moon 5:54 AM CDT (7/8) 8:43 PM CDT (7/8)
Length of Visible Light 16h 37m
Length of Day
15h 24m
New Moon, 0% of the Moon is Illuminated
Jul 8
New Moon
Jul 15
First Quarter
Jul 22
Full
Jul 29
Last Quarter
Aug 6
New

Hourly Weather History & Observations

Time (CDT) Temp. Heat Index Dew Point Humidity Pressure Visibility Wind Dir Wind Speed Gust Speed Precip Events Conditions
12:15 AM 73.4 °F - 69.8 °F 88% 29.92 in 7.0 mi SSE 4.6 mph - N/A   Scattered Clouds
12:35 AM 71.6 °F - 69.8 °F 94% 29.93 in 3.0 mi SSW 8.1 mph - 0.02 in Rain , Thunderstorm Heavy Thunderstorms and Rain
12:55 AM 71.6 °F - 71.6 °F 100% 29.93 in 7.0 mi SW 5.8 mph - 0.11 in Rain , Thunderstorm Thunderstorms and Rain
1:15 AM 71.6 °F - 71.6 °F 100% 29.92 in 7.0 mi Calm Calm - 0.08 in Rain , Thunderstorm Light Thunderstorms and Rain
1:35 AM 71.6 °F - 71.6 °F 100% 29.91 in 7.0 mi Calm Calm - 0.12 in   Mostly Cloudy
1:55 AM 71.6 °F - 71.6 °F 100% 29.91 in 5.0 mi NNW 6.9 mph - 0.12 in   Overcast
2:15 AM 71.6 °F - 71.6 °F 100% 29.90 in 5.0 mi NW 4.6 mph - 0.01 in Thunderstorm Mostly Cloudy
2:35 AM 71.6 °F - 71.6 °F 100% 29.91 in 7.0 mi NNW 9.2 mph - 0.01 in Thunderstorm Mostly Cloudy
2:55 AM 69.8 °F - 69.8 °F 100% 29.90 in 7.0 mi NNE 17.3 mph 25.3 mph 0.01 in Rain , Thunderstorm Light Thunderstorms and Rain
3:15 AM 68.0 °F - 68.0 °F 100% 29.92 in 7.0 mi North 16.1 mph - N/A Thunderstorm Overcast
3:35 AM 68.0 °F - 68.0 °F 100% 29.93 in 2.5 mi NE 11.5 mph - 0.05 in Rain Heavy Rain
3:55 AM 68.0 °F - 68.0 °F 100% 29.91 in 1.2 mi NNE 10.4 mph - 0.21 in Rain , Thunderstorm Heavy Thunderstorms and Rain
4:15 AM 68.0 °F - 68.0 °F 100% 29.92 in 3.0 mi North 6.9 mph - 0.22 in Rain , Thunderstorm Heavy Thunderstorms and Rain
4:35 AM 68.0 °F - 68.0 °F 100% 29.91 in 1.5 mi East 8.1 mph - 0.50 in Rain , Thunderstorm Heavy Thunderstorms and Rain
4:55 AM 68.0 °F - 68.0 °F 100% 29.90 in 7.0 mi SE 4.6 mph - 0.77 in Thunderstorm Mostly Cloudy
5:15 AM 68.0 °F - 68.0 °F 100% 29.91 in 10.0 mi Calm Calm - 0.19 in Thunderstorm Mostly Cloudy
5:35 AM 68.0 °F - 68.0 °F 100% 29.92 in 10.0 mi Calm Calm - 0.41 in Thunderstorm Overcast
5:50 AM 68.0 °F - 68.0 °F 100% 29.91 in 2.0 mi Variable 4.6 mph - N/A   Mostly Cloudy
6:45 AM 66.2 °F - 66.2 °F 100% 29.92 in 4.0 mi Variable 4.6 mph - N/A   Overcast
7:15 AM 66.2 °F - 66.2 °F 100% 29.92 in 1.0 mi Variable 4.6 mph - N/A   Overcast
7:45 AM 68.0 °F - 68.0 °F 100% 29.93 in 5.0 mi Calm Calm - N/A   Overcast
8:55 AM 69.8 °F - 69.8 °F 100% 29.97 in 3.0 mi East 5.8 mph - N/A   Overcast
9:50 AM 69.8 °F - 69.8 °F 100% 29.98 in 10.0 mi East 4.6 mph - N/A   Overcast
10:45 AM 73.4 °F - 71.6 °F 94% 29.97 in 10.0 mi North 6.9 mph - N/A   Overcast
10:50 AM 82.4 °F 88.2 °F 73.4 °F 74% 30.14 in 10.0 mi WSW 10.4 mph - N/A   Scattered Clouds
11:45 AM 75.2 °F - 69.8 °F 83% 29.98 in 7.0 mi Variable 4.6 mph - N/A   Haze
12:45 PM 78.8 °F - 69.8 °F 74% 29.97 in 7.0 mi NNW 5.8 mph - N/A   Scattered Clouds
1:45 PM 80.6 °F 83.9 °F 69.8 °F 70% 29.98 in 10.0 mi North 4.6 mph - N/A   Mostly Cloudy
2:47 PM 80.6 °F 83.9 °F 69.8 °F 70% 29.98 in 10.0 mi North 6.9 mph - N/A   Scattered Clouds
3:55 PM 82.4 °F 86.3 °F 69.8 °F 66% 29.98 in 10.0 mi North 6.9 mph - N/A   Scattered Clouds
4:45 PM 82.4 °F 86.3 °F 69.8 °F 66% 29.98 in 10.0 mi North 4.6 mph - N/A   Mostly Cloudy
5:55 PM 82.4 °F 86.3 °F 69.8 °F 66% 29.98 in 10.0 mi East 6.9 mph - N/A   Mostly Cloudy
6:47 PM 80.6 °F 83.9 °F 69.8 °F 70% 29.98 in 10.0 mi Calm Calm - N/A   Scattered Clouds
7:55 PM 78.8 °F - 71.6 °F 78% 29.99 in 10.0 mi Calm Calm - N/A   Clear
8:55 PM 75.2 °F - 69.8 °F 83% 30.00 in 10.0 mi Calm Calm - N/A   Clear
9:45 PM 71.6 °F - 71.6 °F 100% 30.01 in 7.0 mi SE 3.5 mph - N/A   Clear
10:15 PM 69.8 °F - 69.8 °F 100% 30.01 in 10.0 mi SE 4.6 mph - N/A   Clear
10:35 PM 69.8 °F - 69.8 °F 100% 30.01 in 10.0 mi SSE 3.5 mph - N/A   Clear
10:55 PM 69.8 °F - 68.0 °F 94% 30.01 in 10.0 mi SSE 3.5 mph - N/A   Clear
11:15 PM 69.8 °F - 69.8 °F 100% 30.01 in 7.0 mi SSE 5.8 mph - N/A   Clear
11:35 PM 69.8 °F - 68.0 °F 94% 30.01 in 10.0 mi SE 4.6 mph - N/A   Clear
11:55 PM 68.0 °F - 68.0 °F 100% 30.01 in 7.0 mi SE 3.5 mph - N/A   Clear